Weather History for Shawnee, OK

Change the Weather History Date:

Wednesday, March 7, 2012

  Actual Average (KTIK) Record (KTIK)
Temperature  
Mean Temperature 64 °F -  
Max Temperature 69 °F 55 °F 77 °F (2006)
Min Temperature 60 °F 33 °F 20 °F (2008)
Growing Degree Days 14 (Base 50)    
Moisture  
Dew Point 56 °F    
Average Humidity 72    
Maximum Humidity 88    
Minimum Humidity 60    
Precipitation  
Precipitation 0.00 in - - ()
Sea Level Pressure  
Sea Level Pressure 29.90 in    
Wind  
Wind Speed 20 mph (South)    
Max Wind Speed 24 mph    
Max Gust Speed 33 mph    
Visibility 10 miles    
Events      
Averages and records for this station are not official NWS values.
T = Trace of Precipitation, MM = Missing Value Source: NWS Daily Summary

Daily Weather History Graph

Daily Weather History Graph

Search for Another Location

Airport:

Trip Planner

Search our weather history database for the weather conditions in past years. The results will help you decide how hot, cold, wet, or windy it might be!

Date:

Astronomy

Mar. 07, 2012 Rise Set
Actual Time 6:48 AM CST 6:28 PM CST
Civil Twilight 6:23 AM CST 6:54 PM CST
Nautical Twilight 5:54 AM CST 7:23 PM CST
Astronomical Twilight 5:24 AM CST 7:53 PM CST
Moon 6:05 PM CST (3/7) 5:59 AM CST (3/7)
Length of Visible Light 12h 30m
Length of Day
11h 40m
Waxing Gibbous, 99% of the Moon is Illuminated
Mar 7
Waxing Gibbous
Mar 8
Full
Mar 14
Last Quarter
Mar 22
New
Mar 30
First Quarter

Hourly Weather History & Observations

Time (CST) Temp. Dew Point Humidity Pressure Visibility Wind Dir Wind Speed Gust Speed Precip Events Conditions
12:35 AM 62.6 °F 50.0 °F 63% 29.91 in 10.0 mi South 21.9 mph 33.4 mph N/A   Mostly Cloudy
12:55 AM 62.6 °F 50.0 °F 63% 29.91 in 10.0 mi South 20.7 mph 27.6 mph N/A   Mostly Cloudy
1:15 AM 62.6 °F 50.0 °F 63% 29.91 in 10.0 mi South 17.3 mph 27.6 mph N/A   Overcast
1:35 AM 62.6 °F 50.0 °F 63% 29.91 in 10.0 mi South 21.9 mph 28.8 mph N/A   Overcast
1:55 AM 62.6 °F 50.0 °F 63% 29.91 in 10.0 mi South 18.4 mph 32.2 mph N/A   Overcast
2:15 AM 62.6 °F 50.0 °F 63% 29.91 in 10.0 mi South 23.0 mph 33.4 mph N/A   Overcast
2:35 AM 62.6 °F 50.0 °F 63% 29.90 in 10.0 mi South 19.6 mph 26.5 mph N/A   Overcast
3:35 AM 62.6 °F 50.0 °F 63% 29.90 in 10.0 mi South 16.1 mph 26.5 mph N/A   Overcast
3:55 AM 60.8 °F 50.0 °F 68% 29.90 in 10.0 mi South 19.6 mph 26.5 mph N/A   Overcast
4:15 AM 60.8 °F 51.8 °F 72% 29.90 in 10.0 mi South 17.3 mph 24.2 mph N/A   Overcast
4:35 AM 60.8 °F 51.8 °F 72% 29.89 in 10.0 mi South 20.7 mph 26.5 mph N/A   Overcast
4:55 AM 60.8 °F 51.8 °F 72% 29.91 in 10.0 mi South 19.6 mph 25.3 mph N/A   Overcast
5:15 AM 60.8 °F 53.6 °F 77% 29.90 in 10.0 mi South 17.3 mph 26.5 mph N/A   Overcast
5:35 AM 60.8 °F 53.6 °F 77% 29.91 in 10.0 mi South 19.6 mph 26.5 mph N/A   Mostly Cloudy
5:55 AM 60.8 °F 53.6 °F 77% 29.91 in 10.0 mi South 16.1 mph 24.2 mph N/A   Mostly Cloudy
6:15 AM 60.8 °F 53.6 °F 77% 29.90 in 10.0 mi SSE 17.3 mph 25.3 mph N/A   Overcast
6:35 AM 60.8 °F 53.6 °F 77% 29.91 in 10.0 mi South 24.2 mph 28.8 mph N/A   Overcast
6:55 AM 60.8 °F 53.6 °F 77% 29.91 in 10.0 mi South 23.0 mph 27.6 mph N/A   Overcast
7:15 AM 60.8 °F 53.6 °F 77% 29.91 in 10.0 mi South 19.6 mph 27.6 mph N/A   Overcast
7:55 AM 62.6 °F 55.4 °F 77% 29.92 in 10.0 mi South 19.6 mph 27.6 mph N/A   Overcast
8:35 AM 62.6 °F 55.4 °F 77% 29.92 in 10.0 mi South 20.7 mph 28.8 mph N/A   Overcast
8:55 AM 64.4 °F 55.4 °F 73% 29.92 in 10.0 mi South 23.0 mph 32.2 mph N/A   Overcast
9:15 AM 64.4 °F 55.4 °F 73% 29.92 in 10.0 mi South 20.7 mph 31.1 mph N/A   Overcast
9:35 AM 64.4 °F 55.4 °F 73% 29.93 in 10.0 mi South 23.0 mph 29.9 mph N/A   Mostly Cloudy
10:15 AM 66.2 °F 55.4 °F 68% 29.93 in 10.0 mi South 24.2 mph 33.4 mph N/A   Overcast
10:35 AM 66.2 °F 55.4 °F 68% 29.93 in 10.0 mi South 18.4 mph 28.8 mph N/A   Overcast
10:55 AM 64.4 °F 55.4 °F 73% 29.94 in 10.0 mi South 17.3 mph 25.3 mph N/A   Overcast
11:15 AM 64.4 °F 55.4 °F 73% 29.94 in 10.0 mi South 17.3 mph 33.4 mph N/A   Overcast
11:35 AM 66.2 °F 55.4 °F 68% 29.94 in 10.0 mi South 16.1 mph 28.8 mph N/A   Overcast
11:55 AM 66.2 °F 55.4 °F 68% 29.93 in 10.0 mi South 23.0 mph 32.2 mph N/A   Overcast
12:15 PM 66.2 °F 57.2 °F 73% 29.93 in 10.0 mi South 21.9 mph 26.5 mph N/A   Overcast
12:35 PM 66.2 °F 57.2 °F 73% 29.93 in 10.0 mi South 15.0 mph 24.2 mph N/A   Overcast
12:55 PM 66.2 °F 57.2 °F 73% 29.92 in 10.0 mi South 16.1 mph 27.6 mph N/A   Overcast
1:15 PM 66.2 °F 55.4 °F 68% 29.89 in 10.0 mi South 21.9 mph 26.5 mph N/A   Overcast
1:35 PM 69.8 °F 57.2 °F 64% 29.89 in 10.0 mi South 19.6 mph 27.6 mph N/A   Overcast
1:55 PM 69.8 °F 57.2 °F 64% 29.88 in 10.0 mi South 24.2 mph 28.8 mph N/A   Overcast
2:15 PM 69.8 °F 55.4 °F 60% 29.87 in 10.0 mi South 15.0 mph 31.1 mph N/A   Overcast
2:35 PM 69.8 °F 55.4 °F 60% 29.87 in 10.0 mi South 19.6 mph 26.5 mph N/A   Overcast
2:55 PM 69.8 °F 55.4 °F 60% 29.87 in 10.0 mi South 16.1 mph 24.2 mph N/A   Overcast
3:15 PM 69.8 °F 55.4 °F 60% 29.86 in 10.0 mi South 19.6 mph 29.9 mph N/A   Mostly Cloudy
3:35 PM 69.8 °F 55.4 °F 60% 29.87 in 10.0 mi South 17.3 mph 27.6 mph N/A   Mostly Cloudy
3:55 PM 69.8 °F 55.4 °F 60% 29.87 in 10.0 mi South 18.4 mph 25.3 mph N/A   Mostly Cloudy
4:15 PM 69.8 °F 57.2 °F 64% 29.86 in 10.0 mi South 20.7 mph 27.6 mph N/A   Mostly Cloudy
4:35 PM 69.8 °F 55.4 °F 60% 29.86 in 10.0 mi South 20.7 mph 25.3 mph N/A   Mostly Cloudy
4:55 PM 69.8 °F 57.2 °F 64% 29.85 in 10.0 mi South 18.4 mph 25.3 mph N/A   Mostly Cloudy
5:15 PM 69.8 °F 59.0 °F 68% 29.85 in 10.0 mi South 23.0 mph 27.6 mph N/A   Mostly Cloudy
5:35 PM 69.8 °F 59.0 °F 68% 29.85 in 10.0 mi South 20.7 mph 29.9 mph N/A   Overcast
5:55 PM 69.8 °F 59.0 °F 68% 29.86 in 10.0 mi South 15.0 mph 25.3 mph N/A   Overcast
6:15 PM 69.8 °F 60.8 °F 73% 29.86 in 10.0 mi South 21.9 mph 28.8 mph N/A   Mostly Cloudy
6:35 PM 66.2 °F 59.0 °F 78% 29.86 in 10.0 mi South 19.6 mph 27.6 mph N/A   Mostly Cloudy
6:55 PM 66.2 °F 59.0 °F 78% 29.87 in 10.0 mi SSE 17.3 mph 29.9 mph N/A   Mostly Cloudy
7:15 PM 66.2 °F 59.0 °F 78% 29.88 in 10.0 mi South 20.7 mph 26.5 mph N/A   Overcast
7:35 PM 66.2 °F 60.8 °F 83% 29.89 in 10.0 mi South 16.1 mph 25.3 mph N/A   Overcast
7:55 PM 66.2 °F 60.8 °F 83% 29.89 in 10.0 mi South 18.4 mph 26.5 mph N/A   Overcast
8:15 PM 66.2 °F 60.8 °F 83% 29.90 in 10.0 mi South 20.7 mph 26.5 mph N/A   Overcast
8:35 PM 66.2 °F 60.8 °F 83% 29.90 in 10.0 mi South 17.3 mph 25.3 mph N/A   Overcast
8:55 PM 66.2 °F 60.8 °F 83% 29.90 in 10.0 mi South 17.3 mph 27.6 mph N/A   Overcast
9:15 PM 66.2 °F 60.8 °F 83% 29.91 in 10.0 mi South 19.6 mph 24.2 mph N/A   Overcast
9:35 PM 66.2 °F 60.8 °F 83% 29.92 in 10.0 mi South 15.0 mph 20.7 mph N/A   Overcast
9:55 PM 64.4 °F 60.8 °F 88% 29.92 in 10.0 mi South 15.0 mph 23.0 mph N/A   Overcast
10:15 PM 64.4 °F 59.0 °F 83% 29.92 in 10.0 mi South 16.1 mph 23.0 mph N/A   Mostly Cloudy
10:35 PM 64.4 °F 59.0 °F 83% 29.92 in 10.0 mi South 15.0 mph 24.2 mph N/A   Clear
10:55 PM 64.4 °F 59.0 °F 83% 29.92 in 10.0 mi South 17.3 mph 21.9 mph N/A   Clear
11:35 PM 62.6 °F 59.0 °F 88% 29.92 in 10.0 mi South 17.3 mph - N/A   Clear
11:55 PM 62.6 °F 59.0 °F 88% 29.91 in 10.0 mi South 18.4 mph 21.9 mph N/A   Clear